User: anonymous   Login
Location: Unspecified
(0.0000°N, 0.0000°E)
Time: 22:09:57
(UTC+01:00)
Language:

BREEZE-M DEB (TANK) - Orbit

View from above orbital plane
View from above orbital plane
View from above satellite
View from above satellite

Ground track
Ground track

The orbit data is extracted from the following two-line orbital elements,

1 33374U 08044B   15058.18267821  .00002059  00000-0  58939-3 0  9993
2 33374 049.4072 152.7163 5453262 300.9579 019.2784 04.85156423113096
Epoch (UTC): 27 February 2015 04:23:03
Eccentricity: 0.5453262
inclination: 49.4072°
perigee height: 323 km
apogee height: 16399 km
right ascension of ascending node: 152.7163°
argument of perigee: 300.9579°
revolutions per day: 4.85156423
mean anomaly at epoch: 19.2784°
orbit number at epoch: 11309

The dashed part of the orbit path shows where the satellite is in the earth's shadow,  

DLR